{"data":{"norad_id":63163,"intl_designator":"2025-046E","name":"QIANFAN-77","alt_names":[],"object_type":"PAYLOAD","status":"ACTIVE","operator":null,"country":"PRC","launch_date":"2025-03-11","launch_site_code":"WSC","launch_vehicle":null,"mission":null,"orbit_class":"UNKNOWN","rcs_meters":null,"size_class":null,"mass_kg":null,"dimensions":null,"purposes":[],"wikipedia_slug":null,"has_3d_model":false,"image_url":null,"decayed_at":null,"tle_current":{"epoch":"2026-05-25T03:56:08.082816Z","epoch_age_seconds":51098,"freshness":"FRESH","line1":"1 63163U 25046E   26145.16398244  .00000083  00000+0  50580-4 0  9993","line2":"2 63163  88.9696 299.8457 0012644 293.0470  66.9373 13.96191876 71253","mean_motion":13.96191876,"eccentricity":0.0012644,"inclination_deg":88.9696,"raan_deg":299.8457,"arg_perigee_deg":293.047,"mean_anomaly_deg":66.9373,"bstar":5.058e-5,"rev_number":7125,"period_min":103.13768649947,"perigee_km":897.80062832271,"apogee_km":916.22331303977,"semimajor_km":7285.1489706812,"source":"CELESTRAK","updated_at":"2026-05-25T13:38:03.538719Z"}}}